User: anonymous   Login
Location: Hopkins Observatory
(42.6965°N, 73.1843°W)
Time: 12:46:43
(UTC-04:00)
Language:

RS-15 - Orbit

View from above orbital plane
View from above orbital plane
View from above satellite
View from above satellite

Ground track
Ground track

The orbit data is extracted from the following two-line orbital elements,

1 23439U 94085A   17142.74834310 -.00000041 +00000-0 +37203-4 0  9997
2 23439 064.8169 260.3111 0167171 250.1417 225.4802 11.27565982922545
Epoch (UTC): 22 May 2017 17:57:36
Eccentricity: 0.0167171
inclination: 64.8169°
perigee height: 1882 km
apogee height: 2163 km
right ascension of ascending node: 260.3111°
argument of perigee: 250.1417°
revolutions per day: 11.27565982
mean anomaly at epoch: 225.4802°
orbit number at epoch: 92254

The dashed part of the orbit path shows where the satellite is in the earth's shadow,  

DLR